LORIS (55125 NORAD) Tracking and Keplerian Element Data

This shows tracking and keplerian element data for the satellite.

Feedback or suggestion? Click here.




ElementValue
Catalog55125
NameLORIS
Epoch Orbit1357
Epoch Day85.05159125
Epoch Year2023
RAAN15.617
Inclination51.6375
Eccentricity0.00074
Argument of Perigee151.8379
Mean Anonmoly208.3019
Mean Motion15.67304291
Decay Rate0.00170063
L11 55125U 98067US 23085.05159125 .00170063 00000+0 15188-2 0 9995
L22 55125 51.6375 15.6170 0007400 151.8379 208.3019 15.67304291 13579



Live tracking and technical data element details for LORIS (NORAD 55125). LORIS can be tracked NOW for your location showing map with azimuth and elevation plus other details from your city location.







IsCatalogInMostPopularTable: catalog: 55125, numindb: 11
Update: records affected: 1



GetName: 55125 LORIS

Hit Count: updated at: Mon, 27 Mar 2023 08:22:12 GMT